星链-6267 (STARLINK-6267 )

导读

STARLINK-6267是美国SpaceX公司星链(Starlink)星座的组成卫星,于北京时间2023年5月4日发射升空,属于星链互联网卫星项目。星链计划旨在构建全球卫星互联网,该卫星承担着为全球提供低延迟、高速率宽带互联网服务的任务,进一步扩充了星链星座的在轨规模,推进了全球卫星组网进程。

基本信息
目录编号:
56400
目录名称:
STARLINK-6267
国际标识:
2023-061AC
轨道中心:
EARTH
卫星名称:
星链-6267
卫星全名:
星链-6267 (STARLINK-6267 )
卫星状态:
在轨 (已飞行1227 天)
发射日期:
2023-05-04 UTC
国别 :
美国 (US)
星等 :
--
该卫星已列入 空间交会检测服务 Space Conjunction Data Service (SCDS) ,当前飞行风险评估等级: 无高风险
轨道信息
数据来源 国际轨道数据
星历时间: 2026-09-12T14:57:52+0800
9小时前
查看轨道信息
半长轴: 6861.206km
偏心率: 0.000147
轨道倾角: 43.002°
近地点辐角 264.635°
升交点赤经 213.145°
平近点角 95.434°
近地点: 482.06km
远地点: 484.078km
周期: 94.267分钟
每日圈数: 15.275736
详细信息
固有亮度:
5
最大亮度:
2.5
卫星平台:
Starlink v1.5
覆盖范围:
全球
运营商:
太空探索技术公司
运营商所在国:
美国
制造商(研发单位):
太空探索技术公司
制造商所在国:
美国
使用方式:
暂无
卫星简介
星链(Starlink)计划是由太空探索技术公司(SpaceX)提出的一个巨型低轨卫星互联网星座项目,计划在2019年至2024年间在太空搭建由约1.2万颗卫星组成的“星链”网络,其中1584颗将部署在地球上空550千米处的近地轨道,并从2020年开始工作。该卫星仍在工作。
2D轨道图
3D轨道图
轨道高度分析图
轨道倾角分析图
轨道综合分析图
查看轨道综合分析图
与全量物体交会距离演化趋势
与全量物体交会风险概率演化趋势